Location: Bamazo
(6.7448°N, 10.8189°W)
Time: 23:59:53
(UTC+00:00)

CSL-04 Rocket - Pass Details

Date: 18 September 2020
Orbit: 806 x 860 km, 98.9° (Epoch: 21 October)

Event Time Altitude Azimuth Distance (km) Brightness Sun altitude
Rises 19:56:08 0° 161° (SSE) 3,326 6.6 -19.4°
Reaches altitude 10° 19:58:28 10° 159° (SSE) 2,399 5.8 -20.0°
Maximum altitude 20:03:44 67° 77° (ENE) 887 3.5 -21.3°
Drops below altitude 10° 20:09:03 10° 355° (N) 2,427 6.2 -22.6°
Sets 20:11:26 0° 353° (N) 3,367 7.0 -23.2°
